Dewpoint
10 14 12 13 12 10 8 9 11 10 8 10 11 11 10 10 10 10 10 9 6 7 8 9 8 7 9 8 7 7 5 6 7 6 6 7 5 -2 -8 -18 -13 -11 -9
11 14 13 13 14 11 13 12 12 12 11 11 11 11 11 10 10 10 10 8 6 6 7 8 7 7 9 8 7 7 7 6 6 7 4 4 2 -5 -13 -16 -10 -8 -6
13 12 13 13 13 13 12 12 12 12 12 11 10 10 11 10 10 10 11 10 7 7 7 8 8 6 7 8 7 7 7 7 6 6 2 2 -1 -11 -21 -11 -8 -6 -3
13 13 12 13 14 13 12 11 12 12 12 12 11 11 10 10 10 10 10 10 8 8 7 8 8 7 7 7 8 7 7 7 6 6 2 -0 -8 -15 -18 -11 -7 -5 -2
13 12 13 13 12 13 13 12 11 12 12 12 11 10 10 10 10 11 10 9 10 9 7 7 8 7 7 7 8 8 7 7 6 6 4 -1 -12 -16 -20 -12 -7 -4 -2
10 12 10 13 12 14 13 13 12 11 12 11 12 11 10 9 9 10 9 9 10 10 7 7 7 8 7 7 7 8 8 7 6 6 4 -1 -9 -17 -21 -13 -8 -4 -2
13 11 12 10 12 12 14 13 12 11 12 12 11 10 11 11 10 10 9 10 10 10 9 7 7 8 7 7 7 7 8 8 7 6 6 1 -7 -17 -19 -14 -9 -6 -3
13 13 12 13 11 12 14 13 13 12 12 13 12 11 11 11 11 11 10 10 10 10 10 9 8 7 7 7 7 7 8 8 7 6 6 4 -4 -12 -18 -15 -11 -7 -4
12 13 12 13 13 12 13 13 13 13 12 12 12 11 12 11 11 11 10 10 10 10 10 9 10 8 9 8 8 8 7 8 7 7 6 5 4 -8 -19 -17 -13 -8 -6
13 13 12 12 12 13 12 13 13 12 13 12 11 12 11 10 10 10 10 10 10 11 10 10 10 9 9 10 9 8 7 7 7 7 6 5 5 -1 -14 -18 -17 -12 -8
9 12 12 12 13 13 13 13 12 13 12 11 11 12 11 10 10 9 11 11 11 10 10 10 10 10 9 9 10 9 9 7 6 6 6 5 6 6 2 -5 -18 -18 -13
11 11 9 11 13 13 12 13 12 12 11 11 9 9 10 10 9 11 11 11 10 9 10 10 10 10 10 10 10 10 9 8 8 5 5 5 6 6 6 3 -11 -19 -17
10 10 10 9 9 11 12 12 12 13 13 11 10 9 8 10 9 10 11 10 10 10 10 9 9 10 10 10 10 10 9 9 8 8 4 4 6 6 6 5 1 -16 -18
11 10 9 11 12 12 11 11 12 12 12 10 8 6 9 7 6 9 9 8 10 11 11 10 9 10 10 10 10 10 9 9 8 8 7 3 4 6 6 6 5 -2 -14
11 11 7 8 9 11 12 11 12 11 8 7 7 8 10 8 6 6 6 6 7 10 10 10 11 10 9 9 9 9 9 9 8 9 7 3 -1 4 5 5 1 2 -5
8 11 11 11 11 11 11 10 8 6 5 6 5 8 8 8 5 6 5 4 4 9 11 9 10 10 9 9 9 9 9 9 8 8 7 6 -1 1 4 0 5 3 2
5 7 10 10 10 9 7 6 6 7 6 6 6 8 9 8 6 8 7 2 3 10 11 10 10 7 10 10 10 10 10 9 9 9 9 8 4 2 2 -0 4 5 5
2 4 6 7 8 9 10 10 10 10 9 9 10 10 10 11 10 10 10 10 11 10 10 10 10 11 9 8 10 10 11 10 10 9 9 9 7 6 4 2 4 5 6
0 2 4 5 5 6 7 9 9 9 10 10 10 10 9 10 10 10 10 10 10 10 10 10 10 11 10 10 11 10 10 10 11 10 10 9 9 8 8 5 5 4 5
-1 0 2 3 3 4 5 6 8 8 8 9 9 9 9 9 10 10 9 9 11 10 10 11 11 11 10 10 11 11 10 9 9 9 9 9 9 9 9 8 7 6 5
-0 -1 0 1 2 2 2 3 3 2 2 3 6 7 8 8 9 9 9 9 9 10 9 9 10 10 10 10 11 10 10 10 10 9 9 9 9 9 9 8 8 7 6
-1 -1 -2 -1 0 0 -0 -0 -1 -2 -2 -1 -0 1 3 6 8 8 9 9 9 10 10 10 10 10 10 10 10 10 10 10 10 10 9 9 9 8 8 8 8 8 7
-3 -1 -1 -3 -3 -2 -2 -2 -2 -1 -2 -1 -1 -0 0 2 3 4 7 9 9 9 10 10 10 10 10 10 10 10 10 10 10 10 9 9 9 9 8 8 8 8 8
-5 -5 -4 -4 -4 -4 -4 -3 -4 -3 -2 -2 -1 -1 -1 -0 1 2 4 5 7 8 9 9 10 9 8 8 10 10 10 10 10 9 9 9 8 8 8 8 7 7 7
-6 -6 -5 -5 -5 -4 -5 -5 -5 -4 -4 -4 -3 -2 -1 -2 -1 0 1 2 4 6 8 9 9 9 9 9 9 9 9 9 9 9 9 8 8 8 7 7 7 7 6
-7 -7 -7 -6 -6 -5 -6 -6 -6 -5 -4 -4 -4 -3 -3 -2 -2 -2 -2 1 2 4 6 8 9 9 9 9 9 8 9 9 9 9 9 8 8 7 6 5 5 5 5
Wind_Speed
24 24 20 22 21 22 19 18 14 11 12 14 12 13 10 9 11 16 13 9 6 7 9 11 11 8 12 11 10 8 6 11 12 12 16 15 14 15 15 16 16 16 15
27 26 27 25 25 18 20 19 16 18 12 15 18 17 15 14 14 14 18 12 11 11 11 12 9 9 13 12 11 9 6 11 13 14 14 16 15 16 17 17 16 16 16
30 34 30 29 27 23 23 19 22 20 22 18 18 21 20 19 17 17 21 17 17 14 12 15 12 12 12 14 13 12 10 10 14 15 15 17 17 18 19 18 17 17 17
36 31 34 34 30 29 27 28 27 25 25 23 22 20 20 20 21 22 22 19 19 19 16 20 17 15 15 14 17 15 13 12 16 15 15 19 19 19 20 19 18 18 18
39 38 34 35 35 31 33 34 34 31 28 27 25 23 23 20 22 24 23 20 18 18 15 22 20 18 18 15 18 18 15 15 17 18 17 20 20 20 20 20 20 19 18
41 37 42 39 39 35 35 38 37 34 32 30 27 24 26 24 23 25 25 21 21 23 19 21 24 23 20 19 18 21 18 17 20 21 19 20 21 21 22 22 22 21 20
41 41 38 47 42 43 41 44 39 37 34 35 33 30 24 29 28 28 26 23 25 26 23 21 27 27 27 24 24 23 22 19 20 23 21 21 20 23 25 24 23 22 21
41 42 44 42 44 44 43 43 44 40 37 34 36 28 20 25 30 30 31 29 27 28 27 23 26 29 31 30 29 27 25 23 22 23 24 22 22 24 25 24 24 24 23
44 43 44 47 41 45 47 50 48 44 45 42 40 28 15 15 20 32 33 32 30 31 32 28 27 30 32 31 29 29 29 27 26 24 25 27 24 23 25 25 25 24 24
37 44 42 45 46 42 49 51 50 48 48 48 45 44 30 18 14 11 26 36 35 32 31 34 33 28 33 35 33 32 30 30 30 27 25 28 26 24 25 26 26 26 25
43 42 43 43 45 45 44 48 47 46 51 53 43 40 41 37 31 23 21 25 30 37 38 36 37 34 30 35 37 36 31 26 29 31 29 30 29 27 25 26 27 27 27
42 44 42 44 46 45 43 43 45 47 48 45 37 24 33 43 40 38 31 22 26 30 35 39 37 40 35 35 39 40 36 28 26 27 31 32 32 31 28 25 27 29 30
36 43 43 43 44 47 44 43 43 42 47 40 30 27 36 49 32 32 36 37 30 30 30 30 35 39 39 38 38 38 40 34 29 27 31 35 35 34 31 27 27 30 31
36 40 38 39 39 39 39 41 37 34 34 28 18 27 44 38 29 26 29 27 30 27 31 31 31 40 38 39 41 35 43 39 32 32 31 35 37 36 34 32 29 30 31
23 39 42 40 40 42 42 39 40 33 21 27 29 38 42 36 29 33 28 27 26 24 24 35 32 30 36 36 36 33 41 45 39 39 35 33 36 38 37 35 32 33 32
8 14 27 27 29 28 23 25 23 25 37 44 45 40 40 38 34 32 32 40 42 35 35 30 29 30 37 34 35 33 36 43 44 43 39 36 38 39 38 36 37 36 35
14 6 12 12 18 17 20 21 23 28 32 31 37 37 35 33 34 36 33 32 42 37 39 40 33 34 43 37 37 36 35 38 41 43 42 40 39 40 39 40 39 38 37
19 10 9 9 8 6 11 12 20 27 24 31 34 36 35 35 34 36 33 36 37 39 39 42 40 32 27 37 37 38 39 42 41 40 41 42 42 41 41 42 40 40 39
24 15 10 10 6 1 6 14 12 17 19 23 23 22 21 26 32 34 36 38 36 39 42 42 43 37 31 37 37 35 39 43 41 40 39 43 46 46 45 44 44 42 43
19 16 14 8 9 5 5 13 19 22 22 23 22 19 21 27 25 30 33 33 35 37 41 41 38 40 39 37 37 36 37 36 37 37 37 37 36 44 49 48 50 47 46
16 14 10 8 7 11 11 12 13 15 16 17 20 25 29 30 25 27 28 30 32 36 31 26 38 34 36 37 41 39 41 39 33 35 37 38 36 37 37 44 52 52 51
15 18 16 9 9 14 16 15 12 12 12 14 15 16 19 24 31 31 25 32 29 37 39 34 36 31 38 40 44 45 46 42 39 38 39 39 38 37 38 38 41 50 56
11 9 13 16 10 13 20 17 12 9 9 11 14 16 18 19 21 24 29 28 21 32 28 39 42 37 38 38 40 45 46 45 39 35 33 38 39 38 37 38 39 41 49
16 15 14 14 11 14 17 20 16 12 11 12 13 14 17 17 18 23 25 29 35 34 33 32 38 36 35 36 41 42 42 39 36 36 35 32 30 30 33 33 33 34 39
17 13 13 12 13 13 19 20 16 15 15 16 16 15 16 16 18 23 27 27 31 34 29 30 29 29 32 40 32 37 42 38 38 41 39 33 31 30 30 31 31 32 32
17 17 17 15 14 18 20 21 22 20 20 19 18 18 19 19 18 20 25 28 32 29 30 32 32 33 32 35 38 37 42 38 40 38 37 34 34 31 25 29 28 29 29
Wind_Direction
203 217 224 238 249 240 232 238 246 238 224 194 225 238 232 237 241 260 254 265 242 241 243 220 208 216 237 237 235 237 240 204 192 195 180 173 181 170 170 166 162 161 157
212 211 218 219 241 243 236 228 229 234 245 218 219 225 230 228 245 257 267 258 240 258 253 220 221 219 230 235 232 234 226 221 207 206 199 183 185 177 177 172 169 166 164
219 215 213 213 227 238 220 234 224 218 235 233 235 230 226 229 237 244 257 268 243 242 242 232 220 207 229 239 231 230 230 222 216 218 204 190 193 188 181 179 177 173 171
226 225 219 216 217 227 227 220 218 224 221 233 233 230 233 236 232 243 253 269 252 242 250 220 216 218 220 237 233 232 235 227 223 215 213 198 198 194 186 185 184 182 180
235 231 222 226 214 221 226 228 225 220 222 222 233 235 239 236 231 239 245 258 258 255 248 214 219 221 220 232 236 234 240 235 223 220 223 206 204 197 192 191 192 189 188
247 239 229 226 224 217 224 230 229 221 221 223 219 231 240 245 236 240 248 253 238 251 248 226 224 225 225 230 237 235 237 235 228 229 225 217 207 203 199 198 198 196 196
240 248 237 232 228 214 222 226 225 218 220 224 227 232 236 226 226 233 246 245 230 249 256 236 227 229 233 239 234 235 235 231 231 225 224 221 215 210 204 202 203 202 201
243 243 248 239 237 225 223 227 222 217 217 220 221 216 223 222 222 227 239 240 244 244 252 244 241 232 237 238 235 234 231 228 232 228 226 227 217 217 211 208 208 207 207
239 244 246 249 244 232 229 228 230 220 221 216 221 209 198 217 233 232 231 238 237 236 241 246 237 238 231 235 234 237 233 226 228 235 231 227 225 220 215 215 214 213 213
248 238 241 248 252 248 235 231 233 232 226 223 220 214 208 206 209 230 235 238 235 236 238 234 242 241 234 234 237 236 231 233 225 228 230 224 224 223 219 220 219 218 220
246 243 242 240 247 249 246 240 237 231 229 231 226 224 227 229 227 214 232 222 236 234 240 241 237 241 239 237 235 236 235 233 233 226 223 224 223 224 225 227 224 222 223
248 239 245 243 244 245 244 242 238 235 236 233 229 240 254 239 232 220 225 222 228 243 238 237 237 237 237 240 237 236 236 225 229 232 223 220 223 225 227 230 228 225 225
256 246 244 246 247 245 246 245 240 237 232 235 223 248 250 245 239 235 240 239 240 245 245 240 237 232 230 239 237 231 228 232 229 235 229 225 223 225 228 231 231 229 229
258 251 246 249 247 244 241 240 235 221 232 221 243 242 244 239 239 235 236 239 251 252 236 241 234 227 229 233 236 237 227 230 233 235 236 229 227 226 230 231 235 232 230
268 253 245 246 250 252 241 238 226 228 212 236 266 247 244 253 251 243 241 250 264 255 259 242 232 235 235 232 232 233 228 225 230 232 237 233 227 226 228 231 237 235 233
263 241 246 239 231 222 212 213 229 254 253 251 247 242 245 245 243 245 247 256 265 261 250 251 243 245 249 236 236 231 227 228 230 235 238 235 230 231 230 233 235 237 235
353 353 150 176 214 233 226 223 230 233 232 232 239 241 242 251 245 251 248 242 258 261 257 262 253 244 233 239 234 230 233 232 234 237 240 238 234 235 237 234 235 237 238
342 18 98 115 126 193 191 196 219 228 231 237 242 245 249 256 254 259 256 257 260 266 260 259 257 243 245 247 228 223 224 232 237 239 239 238 237 238 240 238 237 238 239
4 21 83 74 71 255 215 207 212 218 216 229 233 243 254 264 259 256 258 257 262 262 258 256 255 247 239 235 213 221 225 231 235 239 240 240 239 240 241 241 238 238 239
346 19 58 66 50 296 258 222 220 232 231 234 240 243 251 248 264 259 258 261 266 267 256 244 245 244 249 237 230 227 231 226 234 237 239 236 238 240 243 240 239 237 236
356 9 35 57 21 343 289 267 250 253 254 252 249 248 249 254 259 252 262 267 268 263 264 251 232 251 251 232 230 233 229 232 239 239 240 239 244 245 243 243 242 240 234
339 353 8 1 33 338 310 296 284 275 270 267 261 255 251 249 245 251 256 250 262 267 264 250 246 237 245 244 243 240 233 231 233 242 241 241 242 244 246 247 245 243 238
357 324 329 341 346 319 311 320 309 307 278 271 271 268 267 263 262 262 253 251 258 253 268 258 252 246 253 260 251 246 243 239 238 247 244 243 245 249 250 251 253 249 246
15 353 346 339 349 347 327 322 328 319 298 287 289 288 287 283 280 272 268 262 257 258 257 260 257 252 258 266 261 267 258 244 256 250 241 240 244 250 247 251 253 252 250
356 358 342 0 7 334 323 334 332 324 309 293 290 290 292 290 285 279 276 277 269 263 261 258 256 255 261 263 263 263 256 233 236 238 237 238 243 245 246 250 250 251 253
358 359 2 13 355 342 341 335 335 331 316 306 298 300 302 295 290 287 283 281 277 270 262 254 255 255 253 255 248 251 262 240 230 229 233 234 240 238 238 245 246 248 250
Height
1508 1512 1514 1514 1515 1517 1519 1519 1522 1524 1526 1528 1531 1533 1535 1537 1537 1534 1534 1535 1537 1538 1538 1539 1541 1541 1544 1546 1547 1548 1548 1548 1550 1551 1553 1553 1556 1557 1559 1562 1563 1565 1569
1504 1507 1510 1513 1512 1514 1515 1517 1519 1519 1522 1525 1527 1530 1532 1534 1535 1534 1533 1534 1536 1537 1537 1538 1538 1540 1542 1545 1546 1547 1547 1548 1549 1550 1551 1552 1554 1556 1558 1562 1563 1565 1570
1500 1502 1504 1507 1509 1511 1514 1515 1517 1519 1519 1520 1522 1525 1527 1530 1532 1533 1530 1533 1534 1534 1535 1536 1537 1538 1539 1542 1543 1544 1546 1547 1548 1548 1549 1551 1553 1555 1558 1561 1563 1565 1569
1495 1496 1499 1501 1503 1505 1508 1510 1513 1515 1517 1516 1518 1519 1522 1525 1526 1528 1528 1530 1530 1531 1531 1533 1534 1536 1537 1538 1540 1542 1543 1545 1546 1546 1548 1549 1551 1554 1556 1559 1562 1565 1568
1487 1491 1492 1494 1498 1501 1501 1503 1505 1508 1510 1512 1512 1513 1516 1519 1521 1523 1524 1526 1526 1527 1527 1529 1531 1532 1534 1536 1537 1539 1540 1542 1544 1545 1546 1546 1549 1552 1555 1557 1561 1564 1567
1479 1483 1485 1486 1490 1494 1495 1494 1497 1500 1504 1506 1508 1508 1509 1512 1514 1517 1519 1521 1522 1522 1524 1525 1527 1528 1530 1532 1534 1536 1537 1539 1541 1542 1543 1544 1547 1550 1552 1555 1559 1562 1565
1472 1473 1475 1477 1480 1483 1485 1484 1488 1493 1496 1499 1502 1506 1506 1505 1506 1509 1514 1516 1516 1519 1520 1521 1522 1524 1525 1526 1529 1532 1534 1536 1537 1539 1541 1542 1545 1547 1549 1552 1556 1559 1562
1464 1464 1465 1467 1472 1478 1478 1477 1481 1485 1488 1492 1492 1497 1500 1503 1501 1501 1505 1509 1512 1513 1514 1516 1517 1519 1520 1522 1523 1527 1529 1532 1533 1536 1537 1539 1541 1544 1547 1550 1553 1556 1559
1457 1457 1460 1459 1464 1467 1470 1468 1471 1476 1479 1482 1483 1486 1490 1492 1495 1496 1497 1501 1505 1507 1508 1509 1511 1513 1515 1516 1518 1520 1524 1527 1529 1531 1534 1535 1538 1541 1544 1547 1550 1553 1556
1449 1449 1451 1454 1453 1458 1460 1462 1463 1468 1471 1473 1475 1473 1476 1481 1486 1491 1492 1493 1497 1498 1501 1504 1503 1507 1509 1510 1512 1514 1517 1520 1523 1526 1529 1531 1534 1537 1540 1543 1546 1550 1553
1440 1441 1441 1444 1445 1448 1453 1454 1455 1457 1459 1462 1463 1469 1473 1473 1478 1475 1485 1483 1490 1491 1493 1496 1497 1499 1502 1503 1505 1507 1511 1514 1517 1520 1523 1526 1529 1532 1535 1539 1542 1545 1548
1429 1429 1435 1435 1435 1439 1443 1446 1448 1448 1450 1454 1455 1466 1471 1471 1468 1472 1473 1476 1476 1481 1482 1485 1488 1491 1493 1496 1498 1500 1504 1508 1510 1513 1516 1519 1523 1526 1530 1533 1537 1539 1543
1420 1420 1422 1426 1428 1430 1433 1438 1441 1442 1441 1446 1448 1459 1462 1470 1463 1460 1463 1468 1469 1473 1474 1475 1477 1480 1484 1487 1490 1494 1497 1500 1503 1507 1510 1513 1516 1520 1524 1527 1531 1534 1538
1412 1411 1415 1417 1420 1423 1426 1430 1433 1435 1438 1440 1440 1453 1457 1460 1454 1453 1456 1460 1462 1465 1470 1468 1469 1470 1474 1478 1481 1486 1490 1493 1496 1500 1503 1505 1509 1512 1516 1520 1525 1528 1532
1403 1403 1406 1409 1413 1414 1417 1420 1423 1428 1429 1438 1441 1444 1450 1450 1447 1448 1446 1451 1456 1459 1451 1461 1465 1464 1466 1470 1471 1476 1480 1485 1488 1493 1497 1498 1501 1504 1508 1513 1516 1521 1525
1401 1397 1398 1401 1406 1408 1410 1413 1418 1423 1422 1423 1431 1436 1438 1439 1439 1441 1440 1443 1449 1454 1453 1456 1457 1457 1461 1463 1464 1466 1471 1477 1482 1486 1490 1492 1495 1498 1502 1506 1509 1513 1517
1401 1397 1392 1395 1400 1404 1407 1410 1412 1415 1418 1415 1423 1431 1432 1430 1433 1433 1436 1436 1439 1442 1441 1443 1447 1444 1454 1459 1459 1461 1463 1468 1474 1479 1483 1486 1489 1492 1495 1498 1502 1506 1510
1403 1396 1387 1390 1396 1399 1403 1407 1409 1411 1410 1416 1421 1424 1422 1423 1426 1426 1427 1429 1431 1430 1432 1430 1437 1444 1448 1444 1451 1455 1457 1461 1466 1470 1474 1478 1482 1485 1488 1491 1494 1499 1503
1391 1385 1384 1388 1392 1401 1400 1399 1402 1406 1407 1413 1413 1413 1412 1415 1418 1419 1421 1421 1420 1421 1422 1424 1426 1432 1437 1441 1437 1444 1450 1456 1459 1461 1465 1469 1473 1476 1479 1483 1486 1489 1493
1394 1387 1379 1390 1396 1399 1397 1399 1399 1401 1403 1406 1405 1405 1407 1411 1413 1413 1415 1414 1411 1413 1416 1416 1419 1421 1428 1432 1434 1435 1442 1446 1450 1453 1456 1459 1463 1466 1469 1471 1475 1478 1483
1395 1399 1389 1390 1401 1387 1396 1396 1396 1397 1396 1397 1398 1400 1403 1407 1408 1407 1408 1406 1404 1406 1408 1403 1395 1414 1419 1420 1424 1428 1431 1437 1440 1444 1446 1449 1453 1457 1458 1461 1463 1467 1470
1396 1389 1390 1399 1392 1392 1393 1389 1390 1391 1392 1393 1393 1394 1396 1398 1397 1399 1399 1398 1397 1397 1401 1403 1405 1406 1410 1413 1418 1420 1422 1426 1428 1433 1437 1441 1444 1445 1448 1451 1453 1455 1459
1398 1395 1392 1394 1394 1395 1388 1385 1387 1386 1387 1387 1386 1386 1390 1391 1390 1389 1388 1388 1386 1389 1391 1394 1396 1397 1401 1406 1412 1412 1414 1416 1416 1422 1428 1431 1434 1436 1438 1440 1442 1444 1447
1405 1401 1401 1397 1396 1397 1391 1383 1380 1383 1384 1382 1382 1382 1383 1384 1381 1379 1377 1378 1380 1380 1384 1387 1389 1389 1391 1397 1400 1403 1406 1408 1410 1414 1419 1421 1424 1426 1428 1430 1432 1433 1436
1404 1404 1402 1401 1397 1392 1385 1379 1379 1378 1377 1377 1377 1377 1377 1374 1373 1371 1371 1370 1371 1373 1377 1380 1380 1382 1385 1389 1392 1395 1395 1397 1400 1405 1409 1410 1413 1415 1419 1421 1422 1424 1426
1407 1402 1397 1394 1392 1388 1383 1379 1378 1377 1376 1372 1373 1372 1371 1369 1368 1366 1366 1365 1365 1368 1367 1369 1372 1375 1377 1380 1379 1382 1389 1386 1391 1393 1397 1400 1404 1406 1411 1412 1414 1416 1418